PHENX84 NZPM-NZAP

Flight info

Callsign PHENX84
Flight time 1h 49m
Altitude 4500
Route NZPM NZDV NZYP NZHS NZNR NZRK NZAP
Aircraft C172/L-SFG/C

Departure

Time 2026-04-30 10:01
Airport Palmerston North Airport (NZPM)

Arrival

Time 2026-04-30 11:50
Airport Taupo Airport (NZAP)
Time Latitude Longitude Altitude Speed Heading
2026-04-30 09:41 -40.32247 175.62273 161 ft 0 kts 45°
2026-04-30 09:53 -40.32246 175.62274 161 ft 1 kts 37°
2026-04-30 09:53 -40.32240 175.62244 161 ft 5 kts 255°
2026-04-30 09:53 -40.32248 175.62184 160 ft 9 kts 269°
2026-04-30 09:53 -40.32245 175.62083 159 ft 13 kts 274°
2026-04-30 09:54 -40.32236 175.61957 157 ft 14 kts 273°
2026-04-30 09:54 -40.32236 175.61836 155 ft 13 kts 268°
2026-04-30 09:54 -40.32236 175.61721 154 ft 12 kts 270°
2026-04-30 09:54 -40.32237 175.61612 152 ft 12 kts 268°
2026-04-30 09:55 -40.32232 175.61512 151 ft 11 kts 297°
2026-04-30 09:55 -40.32177 175.61452 150 ft 10 kts 321°
2026-04-30 09:55 -40.32127 175.61394 149 ft 9 kts 322°
2026-04-30 09:55 -40.32078 175.61348 149 ft 8 kts 353°
2026-04-30 09:56 -40.32053 175.61346 148 ft 0 kts 354°
2026-04-30 09:57 -40.32045 175.61346 148 ft 7 kts 359°
2026-04-30 09:57 -40.31988 175.61356 146 ft 8 kts 43°
2026-04-30 09:58 -40.31981 175.61407 147 ft 4 kts 88°
2026-04-30 09:58 -40.31981 175.61419 148 ft 0 kts 89°
2026-04-30 09:59 -40.31986 175.61881 154 ft 68 kts 89°
2026-04-30 10:00 -40.31912 175.63418 446 ft 88 kts 89°
2026-04-30 10:00 -40.31871 175.64254 641 ft 93 kts 91°
2026-04-30 10:01 -40.31801 175.65929 1117 ft 91 kts 88°
2026-04-30 10:01 -40.31778 175.66779 1299 ft 92 kts 92°
2026-04-30 10:01 -40.31472 175.67623 1097 ft 127 kts 51°
2026-04-30 10:02 -40.31497 175.69526 1296 ft 112 kts 120°
2026-04-30 10:02 -40.31830 175.70461 1226 ft 115 kts 107°
2026-04-30 10:02 -40.31957 175.71449 1311 ft 107 kts 105°
2026-04-30 10:02 -40.32066 175.72411 1310 ft 104 kts 98°
2026-04-30 10:03 -40.32024 175.73346 1301 ft 107 kts 63°
2026-04-30 10:03 -40.31496 175.74020 1305 ft 105 kts 61°
2026-04-30 10:03 -40.31065 175.74777 1330 ft 106 kts 51°
2026-04-30 10:03 -40.30582 175.75498 1328 ft 104 kts 60°
2026-04-30 10:04 -40.30344 175.76371 1330 ft 104 kts 97°
2026-04-30 10:04 -40.30484 175.77310 1324 ft 107 kts 110°
2026-04-30 10:04 -40.30884 175.78137 1337 ft 106 kts 127°
2026-04-30 10:04 -40.31210 175.79000 1314 ft 107 kts 109°
2026-04-30 10:05 -40.31491 175.79888 1302 ft 104 kts 114°
2026-04-30 10:05 -40.31720 175.80794 1286 ft 106 kts 109°
2026-04-30 10:05 -40.32137 175.81643 1132 ft 118 kts 143°
2026-04-30 10:05 -40.32918 175.81762 1161 ft 112 kts 187°
2026-04-30 10:06 -40.33680 175.81734 1187 ft 112 kts 167°
2026-04-30 10:06 -40.34123 175.82070 1140 ft 114 kts 131°
2026-04-30 10:06 -40.34184 175.83385 1087 ft 113 kts 68°
2026-04-30 10:06 -40.33979 175.83992 1141 ft 106 kts 69°
2026-04-30 10:07 -40.33734 175.84859 1271 ft 95 kts 76°
2026-04-30 10:07 -40.33556 175.85677 1365 ft 96 kts 74°
2026-04-30 10:07 -40.33298 175.86547 1300 ft 107 kts 73°
2026-04-30 10:07 -40.33098 175.87487 1317 ft 108 kts 76°
2026-04-30 10:08 -40.32883 175.88425 1318 ft 107 kts 75°
2026-04-30 10:08 -40.32682 175.89358 1321 ft 106 kts 76°
2026-04-30 10:08 -40.32482 175.90290 1323 ft 107 kts 76°
2026-04-30 10:08 -40.32246 175.91215 1324 ft 108 kts 71°
2026-04-30 10:09 -40.31967 175.92127 1327 ft 108 kts 70°
2026-04-30 10:09 -40.31630 175.93011 1321 ft 109 kts 57°
2026-04-30 10:09 -40.31141 175.93772 1325 ft 108 kts 51°
2026-04-30 10:09 -40.30677 175.94461 1447 ft 98 kts 50°
2026-04-30 10:10 -40.30215 175.95122 1489 ft 98 kts 51°
2026-04-30 10:10 -40.29739 175.95771 1519 ft 99 kts 44°
2026-04-30 10:10 -40.29210 175.96377 1524 ft 103 kts 41°
2026-04-30 10:10 -40.28654 175.96960 1524 ft 102 kts 42°
2026-04-30 10:11 -40.28087 175.97546 1528 ft 105 kts 43°
2026-04-30 10:11 -40.27515 175.98145 1533 ft 106 kts 43°
2026-04-30 10:11 -40.27012 175.98848 1531 ft 106 kts 52°
2026-04-30 10:11 -40.26525 175.99576 1532 ft 107 kts 51°
2026-04-30 10:12 -40.26037 176.00311 1527 ft 107 kts 52°
2026-04-30 10:12 -40.25550 176.01052 1528 ft 107 kts 52°
2026-04-30 10:12 -40.25062 176.01781 1525 ft 106 kts 52°
2026-04-30 10:12 -40.24604 176.02538 1532 ft 106 kts 57°
2026-04-30 10:13 -40.24171 176.03328 1533 ft 108 kts 57°
2026-04-30 10:13 -40.23734 176.04124 1534 ft 108 kts 56°
2026-04-30 10:13 -40.23297 176.04914 1527 ft 106 kts 57°
2026-04-30 10:13 -40.22863 176.05700 1529 ft 106 kts 56°
2026-04-30 10:14 -40.22432 176.06489 1528 ft 107 kts 57°
2026-04-30 10:14 -40.21999 176.07275 1528 ft 107 kts 57°
2026-04-30 10:14 -40.21172 176.08868 1532 ft 104 kts 75°
2026-04-30 10:15 -40.21348 176.09750 1478 ft 109 kts 141°
2026-04-30 10:15 -40.22038 176.09756 1416 ft 117 kts 218°
2026-04-30 10:15 -40.22531 176.08794 1021 ft 123 kts 237°
2026-04-30 10:15 -40.23052 176.08030 691 ft 105 kts 209°
2026-04-30 10:16 -40.23552 176.07511 662 ft 86 kts 216°
2026-04-30 10:16 -40.24027 176.06987 760 ft 91 kts 220°
2026-04-30 10:16 -40.24492 176.06429 857 ft 93 kts 224°
2026-04-30 10:17 -40.24126 176.05424 1107 ft 83 kts 22°
2026-04-30 10:17 -40.23079 176.06356 1204 ft 91 kts 35°
2026-04-30 10:17 -40.22581 176.06864 1310 ft 89 kts 43°
2026-04-30 10:18 -40.22109 176.07376 1424 ft 88 kts 42°
2026-04-30 10:18 -40.21633 176.07888 1522 ft 89 kts 42°
2026-04-30 10:18 -40.21134 176.08439 1533 ft 97 kts 42°
2026-04-30 10:19 -40.20042 176.09611 1536 ft 104 kts 43°
2026-04-30 10:19 -40.19426 176.10174 1517 ft 112 kts 32°
2026-04-30 10:19 -40.18764 176.10719 1515 ft 113 kts 40°
2026-04-30 10:19 -40.18149 176.11352 1516 ft 113 kts 42°
2026-04-30 10:20 -40.17533 176.11994 1521 ft 112 kts 41°
2026-04-30 10:20 -40.16317 176.13260 1518 ft 111 kts 40°
2026-04-30 10:20 -40.15714 176.13886 1518 ft 111 kts 40°
2026-04-30 10:21 -40.15112 176.14515 1516 ft 111 kts 40°
2026-04-30 10:21 -40.14510 176.15137 1518 ft 110 kts 40°
2026-04-30 10:21 -40.13917 176.15759 1523 ft 109 kts 41°
2026-04-30 10:21 -40.13324 176.16384 1520 ft 109 kts 40°
2026-04-30 10:22 -40.12733 176.17003 1523 ft 108 kts 40°
2026-04-30 10:22 -40.12150 176.17614 1527 ft 108 kts 40°
2026-04-30 10:22 -40.11562 176.18239 1528 ft 109 kts 41°
2026-04-30 10:22 -40.10965 176.18861 1541 ft 110 kts 40°
2026-04-30 10:23 -40.10359 176.19489 1542 ft 112 kts 41°
2026-04-30 10:23 -40.09752 176.20086 1625 ft 107 kts 41°
2026-04-30 10:23 -40.09167 176.20690 1624 ft 107 kts 52°
2026-04-30 10:23 -40.09106 176.21521 1759 ft 89 kts 123°
2026-04-30 10:24 -40.09409 176.22194 1893 ft 87 kts 121°
2026-04-30 10:24 -40.09704 176.22878 1991 ft 87 kts 115°
2026-04-30 10:24 -40.09938 176.23602 2105 ft 86 kts 115°
2026-04-30 10:24 -40.10174 176.24324 2197 ft 86 kts 115°
2026-04-30 10:25 -40.10409 176.25041 2295 ft 86 kts 115°
2026-04-30 10:25 -40.10646 176.25757 2394 ft 86 kts 115°
2026-04-30 10:25 -40.10661 176.26506 2490 ft 92 kts 56°
2026-04-30 10:25 -40.10166 176.27067 2538 ft 97 kts 49°
2026-04-30 10:26 -40.09642 176.27671 2544 ft 103 kts 47°
2026-04-30 10:26 -40.09088 176.28303 2541 ft 107 kts 47°
2026-04-30 10:26 -40.08511 176.28938 2540 ft 110 kts 43°
2026-04-30 10:26 -40.07905 176.29557 2543 ft 111 kts 42°
2026-04-30 10:27 -40.07265 176.30113 2533 ft 112 kts 39°
2026-04-30 10:27 -40.06621 176.30684 2540 ft 112 kts 40°
2026-04-30 10:27 -40.05980 176.31258 2535 ft 111 kts 40°
2026-04-30 10:27 -40.05340 176.31828 2535 ft 112 kts 40°
2026-04-30 10:28 -40.04696 176.32397 2533 ft 112 kts 40°
2026-04-30 10:28 -40.04052 176.32967 2536 ft 112 kts 39°
2026-04-30 10:28 -40.03411 176.33538 2539 ft 111 kts 39°
2026-04-30 10:28 -40.02773 176.34115 2534 ft 112 kts 43°
2026-04-30 10:29 -40.02168 176.34747 2537 ft 112 kts 44°
2026-04-30 10:29 -40.01626 176.35459 2538 ft 110 kts 57°
2026-04-30 10:29 -40.01206 176.36277 2535 ft 109 kts 61°
2026-04-30 10:29 -40.00792 176.37100 2536 ft 108 kts 62°
2026-04-30 10:30 -40.00401 176.37939 2539 ft 108 kts 64°
2026-04-30 10:30 -40.00008 176.38786 2534 ft 108 kts 64°
2026-04-30 10:30 -39.99633 176.39614 2533 ft 107 kts 68°
2026-04-30 10:30 -39.99307 176.40481 2537 ft 106 kts 68°
2026-04-30 10:31 -39.99045 176.41377 2536 ft 105 kts 81°
2026-04-30 10:31 -39.98876 176.42321 2541 ft 106 kts 81°
2026-04-30 10:31 -39.98707 176.43257 2539 ft 106 kts 81°
2026-04-30 10:31 -39.98538 176.44193 2539 ft 106 kts 80°
2026-04-30 10:32 -39.98371 176.45120 2543 ft 107 kts 81°
2026-04-30 10:32 -39.98201 176.46067 2541 ft 107 kts 81°
2026-04-30 10:32 -39.98045 176.47018 2538 ft 107 kts 88°
2026-04-30 10:32 -39.98067 176.47978 2540 ft 105 kts 98°
2026-04-30 10:33 -39.98170 176.48910 2535 ft 103 kts 101°
2026-04-30 10:33 -39.98275 176.49832 2536 ft 103 kts 100°
2026-04-30 10:33 -39.98380 176.50763 2527 ft 105 kts 101°
2026-04-30 10:33 -39.98483 176.51706 2528 ft 105 kts 101°
2026-04-30 10:34 -39.98587 176.52651 2529 ft 105 kts 101°
2026-04-30 10:34 -39.98692 176.53594 2535 ft 105 kts 101°
2026-04-30 10:34 -39.98798 176.54535 2531 ft 105 kts 101°
2026-04-30 10:34 -39.98904 176.55478 2528 ft 105 kts 101°
2026-04-30 10:35 -39.99010 176.56422 2534 ft 106 kts 100°
2026-04-30 10:35 -39.99007 176.57384 2528 ft 107 kts 86°
2026-04-30 10:35 -39.98920 176.58350 2522 ft 107 kts 86°
2026-04-30 10:35 -39.98682 176.59253 2514 ft 112 kts 48°
2026-04-30 10:36 -39.98021 176.59795 2523 ft 114 kts 29°
2026-04-30 10:36 -39.97268 176.60150 2522 ft 115 kts 25°
2026-04-30 10:36 -39.96513 176.60497 2522 ft 116 kts 25°
2026-04-30 10:36 -39.95749 176.60845 2523 ft 116 kts 25°
2026-04-30 10:37 -39.94986 176.61200 2525 ft 117 kts 25°
2026-04-30 10:37 -39.94222 176.61554 2523 ft 116 kts 25°
2026-04-30 10:37 -39.93460 176.61904 2522 ft 116 kts 25°
2026-04-30 10:37 -39.92702 176.62250 2519 ft 115 kts 25°
2026-04-30 10:38 -39.91946 176.62597 2518 ft 116 kts 24°
2026-04-30 10:38 -39.91186 176.62947 2518 ft 116 kts 24°
2026-04-30 10:38 -39.90422 176.63296 2518 ft 116 kts 25°
2026-04-30 10:38 -39.89660 176.63645 2518 ft 117 kts 25°
2026-04-30 10:39 -39.88876 176.63937 2520 ft 118 kts 16°
2026-04-30 10:39 -39.88071 176.64148 2523 ft 119 kts 15°
2026-04-30 10:39 -39.87252 176.64315 2520 ft 120 kts 14°
2026-04-30 10:39 -39.86429 176.64481 2522 ft 120 kts 14°
2026-04-30 10:40 -39.85604 176.64646 2519 ft 120 kts 14°
2026-04-30 10:40 -39.84782 176.64810 2513 ft 119 kts 14°
2026-04-30 10:40 -39.83972 176.64970 2512 ft 117 kts 14°
2026-04-30 10:40 -39.83170 176.65128 2512 ft 116 kts 14°
2026-04-30 10:41 -39.82375 176.65306 2517 ft 116 kts 18°
2026-04-30 10:41 -39.81600 176.65588 2516 ft 116 kts 22°
2026-04-30 10:41 -39.80829 176.65899 2519 ft 116 kts 22°
2026-04-30 10:41 -39.80058 176.66211 2528 ft 117 kts 22°
2026-04-30 10:42 -39.79278 176.66530 2518 ft 118 kts 24°
2026-04-30 10:42 -39.78553 176.66976 2518 ft 114 kts 33°
2026-04-30 10:42 -39.77846 176.67446 2520 ft 114 kts 32°
2026-04-30 10:42 -39.77138 176.67921 2522 ft 115 kts 33°
2026-04-30 10:43 -39.76500 176.68520 2528 ft 113 kts 45°
2026-04-30 10:43 -39.75892 176.69166 2529 ft 113 kts 44°
2026-04-30 10:43 -39.75280 176.69823 2531 ft 115 kts 45°
2026-04-30 10:43 -39.74663 176.70493 2527 ft 117 kts 44°
2026-04-30 10:44 -39.74037 176.71173 2532 ft 117 kts 44°
2026-04-30 10:44 -39.73414 176.71849 2525 ft 117 kts 44°
2026-04-30 10:44 -39.72788 176.72530 2530 ft 117 kts 45°
2026-04-30 10:44 -39.72163 176.73208 2529 ft 117 kts 45°
2026-04-30 10:45 -39.71542 176.73882 2525 ft 116 kts 45°
2026-04-30 10:45 -39.70921 176.74551 2519 ft 116 kts 45°
2026-04-30 10:45 -39.70306 176.75218 2520 ft 115 kts 45°
2026-04-30 10:45 -39.69693 176.75880 2516 ft 114 kts 45°
2026-04-30 10:46 -39.69095 176.76544 2122 ft 122 kts 47°
2026-04-30 10:46 -39.68554 176.77337 1871 ft 109 kts 54°
2026-04-30 10:46 -39.68065 176.78130 1639 ft 103 kts 54°
2026-04-30 10:46 -39.67578 176.78779 1391 ft 106 kts 27°
2026-04-30 10:47 -39.66804 176.78802 963 ft 114 kts 337°
2026-04-30 10:47 -39.66258 176.78166 743 ft 104 kts 306°
2026-04-30 10:47 -39.65788 176.77537 685 ft 92 kts 320°
2026-04-30 10:47 -39.65219 176.77127 547 ft 94 kts 348°
2026-04-30 10:48 -39.64622 176.77460 460 ft 97 kts 39°
2026-04-30 10:48 -39.64111 176.77969 419 ft 96 kts 32°
2026-04-30 10:48 -39.63546 176.78393 424 ft 90 kts 22°
2026-04-30 10:48 -39.62975 176.78275 391 ft 86 kts 310°
2026-04-30 10:49 -39.62977 176.77588 339 ft 89 kts 221°
2026-04-30 10:49 -39.63589 176.77294 301 ft 97 kts 211°
2026-04-30 10:49 -39.64166 176.76891 121 ft 88 kts 210°
2026-04-30 10:49 -39.64653 176.76538 96 ft 85 kts 210°
2026-04-30 10:50 -39.65187 176.76189 202 ft 92 kts 205°
2026-04-30 10:50 -39.65770 176.75962 446 ft 83 kts 185°
2026-04-30 10:50 -39.66204 176.76445 570 ft 91 kts 111°
2026-04-30 10:50 -39.66393 176.77209 731 ft 95 kts 105°
2026-04-30 10:51 -39.66369 176.78073 836 ft 102 kts 60°
2026-04-30 10:51 -39.65827 176.78741 837 ft 105 kts 46°
2026-04-30 10:51 -39.65508 176.79209 843 ft 104 kts 49°
2026-04-30 10:51 -39.64861 176.80169 746 ft 106 kts 52°
2026-04-30 10:52 -39.64559 176.80687 662 ft 107 kts 53°
2026-04-30 10:52 -39.64096 176.81443 550 ft 107 kts 47°
2026-04-30 10:52 -39.63599 176.82130 398 ft 105 kts 53°
2026-04-30 10:52 -39.63131 176.82889 200 ft 107 kts 54°
2026-04-30 10:53 -39.62564 176.83363 341 ft 96 kts
2026-04-30 10:53 -39.61909 176.83336 434 ft 94 kts
2026-04-30 10:53 -39.61315 176.83750 456 ft 99 kts 40°
2026-04-30 10:53 -39.61130 176.84557 518 ft 99 kts 112°
2026-04-30 10:54 -39.61360 176.85394 589 ft 101 kts 94°
2026-04-30 10:54 -39.61205 176.86278 663 ft 101 kts 64°
2026-04-30 10:54 -39.60855 176.87067 749 ft 101 kts 51°
2026-04-30 10:54 -39.60353 176.87699 834 ft 101 kts 44°
2026-04-30 10:55 -39.59850 176.88333 913 ft 100 kts 43°
2026-04-30 10:55 -39.59341 176.88964 1008 ft 101 kts 43°
2026-04-30 10:55 -39.58810 176.89619 1017 ft 109 kts 44°
2026-04-30 10:55 -39.58245 176.90312 1024 ft 114 kts 43°
2026-04-30 10:56 -39.57663 176.91029 1026 ft 117 kts 44°
2026-04-30 10:56 -39.57078 176.91750 1021 ft 118 kts 42°
2026-04-30 10:56 -39.56380 176.92303 1020 ft 118 kts 23°
2026-04-30 10:56 -39.55580 176.92529 1016 ft 118 kts
2026-04-30 10:57 -39.54765 176.92506 1012 ft 117 kts 355°
2026-04-30 10:57 -39.53954 176.92444 1012 ft 117 kts 356°
2026-04-30 10:57 -39.53152 176.92374 1009 ft 115 kts 356°
2026-04-30 10:57 -39.52351 176.92310 1011 ft 116 kts 356°
2026-04-30 10:58 -39.51545 176.92245 1011 ft 116 kts 356°
2026-04-30 10:58 -39.50739 176.92179 1011 ft 116 kts 355°
2026-04-30 10:58 -39.49936 176.92114 1010 ft 115 kts 355°
2026-04-30 10:58 -39.49134 176.92053 1018 ft 115 kts 355°
2026-04-30 10:59 -39.48324 176.91980 1009 ft 117 kts 355°
2026-04-30 10:59 -39.47510 176.91909 1012 ft 117 kts 352°
2026-04-30 10:59 -39.46891 176.91309 814 ft 120 kts 288°
2026-04-30 10:59 -39.47078 176.90326 675 ft 115 kts 228°
2026-04-30 11:00 -39.47721 176.89707 519 ft 105 kts 229°
2026-04-30 11:00 -39.47866 176.88837 490 ft 102 kts 291°
2026-04-30 11:00 -39.47328 176.88270 447 ft 102 kts 343°
2026-04-30 11:00 -39.46622 176.88060 409 ft 104 kts 340°
2026-04-30 11:01 -39.45978 176.87664 446 ft 98 kts 331°
2026-04-30 11:01 -39.45644 176.87115 459 ft 76 kts 264°
2026-04-30 11:01 -39.46037 176.86738 215 ft 79 kts 174°
2026-04-30 11:01 -39.46543 176.86772 81 ft 64 kts 190°
2026-04-30 11:02 -39.46919 176.86721 76 ft 45 kts 184°
2026-04-30 11:02 -39.47184 176.86693 73 ft 33 kts 182°
2026-04-30 11:02 -39.47367 176.86664 72 ft 13 kts 176°
2026-04-30 11:02 -39.47380 176.86695 73 ft 4 kts 85°
2026-04-30 11:03 -39.47378 176.86775 74 ft 14 kts 88°
2026-04-30 11:03 -39.47369 176.86895 74 ft 12 kts 89°
2026-04-30 11:03 -39.47365 176.86997 74 ft 10 kts 92°
2026-04-30 11:04 -39.47366 176.87033 74 ft 4 kts 77°
2026-04-30 11:04 -39.47338 176.87037 74 ft 4 kts 71°
2026-04-30 11:04 -39.47340 176.87083 74 ft 7 kts 103°
2026-04-30 11:04 -39.47374 176.87066 74 ft 7 kts 280°
2026-04-30 11:05 -39.47366 176.86987 74 ft 10 kts 269°
2026-04-30 11:05 -39.47370 176.86892 74 ft 11 kts 265°
2026-04-30 11:05 -39.47350 176.86827 75 ft 8 kts 359°
2026-04-30 11:05 -39.47266 176.86833 75 ft 17 kts 356°
2026-04-30 11:06 -39.47120 176.86843 74 ft 26 kts 360°
2026-04-30 11:06 -39.46932 176.86861 75 ft 25 kts
2026-04-30 11:06 -39.46775 176.86874 74 ft 21 kts
2026-04-30 11:06 -39.46675 176.86944 74 ft 16 kts 87°
2026-04-30 11:07 -39.46699 176.87054 77 ft 11 kts 162°
2026-04-30 11:07 -39.46734 176.87102 77 ft 8 kts 53°
2026-04-30 11:07 -39.46717 176.87113 77 ft 0 kts 27°
2026-04-30 11:15 -39.46696 176.87122 80 ft 5 kts
2026-04-30 11:15 -39.46655 176.87127 80 ft 7 kts
2026-04-30 11:15 -39.46595 176.87131 80 ft 10 kts
2026-04-30 11:16 -39.46515 176.87130 80 ft 13 kts 357°
2026-04-30 11:16 -39.46456 176.87124 79 ft 3 kts 357°
2026-04-30 11:16 -39.46442 176.87123 79 ft 0 kts 356°
2026-04-30 11:17 -39.46441 176.87123 79 ft 2 kts 354°
2026-04-30 11:17 -39.46433 176.87107 79 ft 0 kts 269°
2026-04-30 11:18 -39.46442 176.86424 98 ft 71 kts 272°
2026-04-30 11:18 -39.46172 176.85880 191 ft 83 kts 331°
2026-04-30 11:19 -39.45714 176.85601 401 ft 74 kts 323°
2026-04-30 11:19 -39.45248 176.85153 419 ft 94 kts 329°
2026-04-30 11:19 -39.44759 176.84727 704 ft 77 kts 326°
2026-04-30 11:19 -39.44311 176.84349 871 ft 77 kts 329°
2026-04-30 11:20 -39.43853 176.83987 1067 ft 77 kts 328°
2026-04-30 11:20 -39.43392 176.83619 1248 ft 78 kts 327°
2026-04-30 11:20 -39.42929 176.83253 1421 ft 79 kts 328°
2026-04-30 11:20 -39.42458 176.82879 1600 ft 80 kts 327°
2026-04-30 11:21 -39.41975 176.82494 1797 ft 83 kts 328°
2026-04-30 11:21 -39.41489 176.82087 1978 ft 84 kts 328°
2026-04-30 11:21 -39.40999 176.81670 2196 ft 85 kts 327°
2026-04-30 11:21 -39.40496 176.81231 2396 ft 87 kts 327°
2026-04-30 11:22 -39.39993 176.80785 2626 ft 88 kts 326°
2026-04-30 11:22 -39.39482 176.80333 2775 ft 89 kts 328°
2026-04-30 11:22 -39.38972 176.79872 2955 ft 90 kts 328°
2026-04-30 11:22 -39.38461 176.79404 3129 ft 90 kts 327°
2026-04-30 11:23 -39.37948 176.78930 3305 ft 91 kts 327°
2026-04-30 11:23 -39.37433 176.78453 3506 ft 91 kts 327°
2026-04-30 11:23 -39.36414 176.77491 3874 ft 91 kts 327°
2026-04-30 11:24 -39.35883 176.77039 4029 ft 94 kts 329°
2026-04-30 11:24 -39.35280 176.76538 4040 ft 112 kts 330°
2026-04-30 11:24 -39.34585 176.75968 4035 ft 124 kts 330°
2026-04-30 11:25 -39.33072 176.74736 4035 ft 132 kts 330°
2026-04-30 11:25 -39.32295 176.74103 4033 ft 132 kts 330°
2026-04-30 11:25 -39.30728 176.72824 4030 ft 134 kts 330°
2026-04-30 11:26 -39.29109 176.71513 4031 ft 139 kts 330°
2026-04-30 11:26 -39.28280 176.70846 4030 ft 142 kts 330°
2026-04-30 11:26 -39.27449 176.70167 4030 ft 141 kts 330°
2026-04-30 11:27 -39.26617 176.69487 4030 ft 142 kts 330°
2026-04-30 11:27 -39.25800 176.68819 4099 ft 136 kts 330°
2026-04-30 11:27 -39.25002 176.68169 4159 ft 136 kts 330°
2026-04-30 11:27 -39.24200 176.67510 4229 ft 137 kts 330°
2026-04-30 11:28 -39.22593 176.66201 4457 ft 137 kts 330°
2026-04-30 11:28 -39.21793 176.65547 4429 ft 136 kts 329°
2026-04-30 11:28 -39.20993 176.64877 4395 ft 139 kts 330°
2026-04-30 11:29 -39.20177 176.64216 4434 ft 135 kts 330°
2026-04-30 11:29 -39.19455 176.63594 4716 ft 118 kts 330°
2026-04-30 11:29 -39.18072 176.62397 4923 ft 118 kts 329°
2026-04-30 11:30 -39.16738 176.61219 5222 ft 117 kts 330°
2026-04-30 11:30 -39.16063 176.60624 5360 ft 118 kts 329°
2026-04-30 11:30 -39.15393 176.60019 5501 ft 118 kts 330°
2026-04-30 11:31 -39.14728 176.59424 5603 ft 119 kts 330°
2026-04-30 11:31 -39.14038 176.58810 5717 ft 119 kts 330°
2026-04-30 11:31 -39.13357 176.58192 5795 ft 120 kts 330°
2026-04-30 11:31 -39.12684 176.57588 5861 ft 119 kts 331°
2026-04-30 11:32 -39.11994 176.56973 5951 ft 120 kts 329°
2026-04-30 11:32 -39.11313 176.56354 6031 ft 123 kts 330°
2026-04-30 11:32 -39.10602 176.55715 6032 ft 129 kts 330°
2026-04-30 11:33 -39.09077 176.54360 6033 ft 137 kts 330°
2026-04-30 11:33 -39.08277 176.53662 6029 ft 142 kts 330°
2026-04-30 11:33 -39.07460 176.52947 6023 ft 141 kts 330°
2026-04-30 11:33 -39.06680 176.52229 6017 ft 133 kts 331°
2026-04-30 11:34 -39.05941 176.51530 6010 ft 131 kts 330°
2026-04-30 11:34 -39.05205 176.50833 6020 ft 134 kts 328°
2026-04-30 11:34 -39.04441 176.50123 6026 ft 136 kts 329°
2026-04-30 11:34 -39.03660 176.49412 6020 ft 137 kts 330°
2026-04-30 11:35 -39.03124 176.48916 6011 ft 144 kts 329°
2026-04-30 11:35 -39.02407 176.48250 6008 ft 138 kts 329°
2026-04-30 11:35 -39.01635 176.47538 5997 ft 136 kts 331°
2026-04-30 11:36 -39.00867 176.46838 6025 ft 137 kts 330°
2026-04-30 11:36 -39.00113 176.46143 6018 ft 126 kts 330°
2026-04-30 11:36 -38.99623 176.45694 6021 ft 131 kts 330°
2026-04-30 11:36 -38.98875 176.44992 6021 ft 134 kts 330°
2026-04-30 11:37 -38.97907 176.44008 6021 ft 134 kts 320°
2026-04-30 11:37 -38.97235 176.43182 6019 ft 133 kts 320°
2026-04-30 11:37 -38.96779 176.42627 6018 ft 135 kts 321°
2026-04-30 11:37 -38.96109 176.41797 6017 ft 135 kts 321°
2026-04-30 11:38 -38.95419 176.40952 6015 ft 136 kts 321°
2026-04-30 11:38 -38.94742 176.40127 6032 ft 134 kts 321°
2026-04-30 11:38 -38.94062 176.39297 6031 ft 135 kts 321°
2026-04-30 11:38 -38.93381 176.38456 6030 ft 136 kts 321°
2026-04-30 11:39 -38.92724 176.37566 6031 ft 138 kts 316°
2026-04-30 11:39 -38.92080 176.36656 6033 ft 137 kts 315°
2026-04-30 11:39 -38.91447 176.35764 6033 ft 138 kts 316°
2026-04-30 11:39 -38.90803 176.34852 6033 ft 137 kts 316°
2026-04-30 11:40 -38.90169 176.33917 6039 ft 140 kts 311°
2026-04-30 11:40 -38.89568 176.32923 6041 ft 141 kts 311°
2026-04-30 11:40 -38.88965 176.31931 6039 ft 140 kts 311°
2026-04-30 11:40 -38.88366 176.30947 6037 ft 140 kts 310°
2026-04-30 11:41 -38.87768 176.29966 6030 ft 138 kts 311°
2026-04-30 11:41 -38.87183 176.28992 6028 ft 138 kts 310°
2026-04-30 11:41 -38.86598 176.28020 6035 ft 138 kts 311°
2026-04-30 11:41 -38.86006 176.27038 6034 ft 140 kts 311°
2026-04-30 11:42 -38.85422 176.26060 6018 ft 135 kts 311°
2026-04-30 11:42 -38.84836 176.25100 5704 ft 141 kts 311°
2026-04-30 11:42 -38.84231 176.24108 5418 ft 140 kts 311°
2026-04-30 11:42 -38.83625 176.23133 5125 ft 140 kts 311°
2026-04-30 11:43 -38.83037 176.22201 5032 ft 125 kts 311°
2026-04-30 11:43 -38.82537 176.21378 5027 ft 113 kts 311°
2026-04-30 11:43 -38.82065 176.20605 5023 ft 108 kts 311°
2026-04-30 11:43 -38.81618 176.19856 5029 ft 104 kts 310°
2026-04-30 11:44 -38.81189 176.19132 5023 ft 100 kts 310°
2026-04-30 11:44 -38.80774 176.18447 5015 ft 96 kts 311°
2026-04-30 11:44 -38.80329 176.17720 4857 ft 111 kts 311°
2026-04-30 11:44 -38.79849 176.16938 4802 ft 112 kts 311°
2026-04-30 11:45 -38.79364 176.16154 4734 ft 113 kts 311°
2026-04-30 11:45 -38.78881 176.15356 4700 ft 113 kts 311°
2026-04-30 11:45 -38.78396 176.14569 4532 ft 114 kts 311°
2026-04-30 11:45 -38.77900 176.13793 4301 ft 113 kts 313°
2026-04-30 11:46 -38.77324 176.13077 4065 ft 117 kts 332°
2026-04-30 11:46 -38.76588 176.12665 3804 ft 116 kts 358°
2026-04-30 11:46 -38.75791 176.12432 3569 ft 118 kts 351°
2026-04-30 11:46 -38.75044 176.11956 3347 ft 124 kts 331°
2026-04-30 11:47 -38.74449 176.11200 3166 ft 119 kts 308°
2026-04-30 11:47 -38.73913 176.10386 2909 ft 117 kts 321°
2026-04-30 11:47 -38.73252 176.09780 2697 ft 115 kts 334°
2026-04-30 11:47 -38.72574 176.09281 2527 ft 114 kts 337°
2026-04-30 11:48 -38.71919 176.08755 2392 ft 111 kts 319°
2026-04-30 11:48 -38.71511 176.07955 2237 ft 106 kts 278°
2026-04-30 11:48 -38.71652 176.07154 2152 ft 87 kts 223°
2026-04-30 11:48 -38.72128 176.06693 2041 ft 84 kts 207°
2026-04-30 11:49 -38.72627 176.06312 1967 ft 84 kts 202°
2026-04-30 11:49 -38.73176 176.06124 1869 ft 81 kts 173°
2026-04-30 11:49 -38.73607 176.06520 1704 ft 83 kts 115°
2026-04-30 11:49 -38.73861 176.07090 1515 ft 65 kts 124°
2026-04-30 11:50 -38.74078 176.07564 1358 ft 59 kts 123°
2026-04-30 11:50 -38.74283 176.07951 1327 ft 40 kts 128°
2026-04-30 11:50 -38.74362 176.08103 1325 ft 12 kts 118°
2026-04-30 11:50 -38.74399 176.08177 1324 ft 9 kts 124°
2026-04-30 11:51 -38.74428 176.08236 1322 ft 6 kts 120°
2026-04-30 11:51 -38.74439 176.08273 1322 ft 3 kts 31°
2026-04-30 11:51 -38.74434 176.08275 1322 ft 0 kts 21°
2026-04-30 11:52 -38.74423 176.08279 1322 ft 5 kts 14°
2026-04-30 11:52 -38.74362 176.08297 1324 ft 13 kts 14°
2026-04-30 11:53 -38.74256 176.08333 1325 ft 13 kts 15°
2026-04-30 11:53 -38.74196 176.08372 1325 ft 8 kts 17°
2026-04-30 11:53 -38.74164 176.08353 1326 ft 5 kts 277°
2026-04-30 11:53 -38.74150 176.08309 1326 ft 6 kts 301°
2026-04-30 11:54 -38.74109 176.08296 1326 ft 7 kts 21°
2026-04-30 11:54 -38.74099 176.08325 1326 ft 0 kts 125°